Aérodrome :
LOGIN :

S'inscrire | Disclaimer

   EN    FR    IT 

 










Légende :    VFR   VFR Marginal   IFR   IFR Intensif   IFR Très Intensif
Visi : 
Plafond : 
>= 8 km
>= 3000ft
5 à 8 km
1000 à 3000 ft
1500m à 5 km
500 à 1000 ft
800 à 1500m
200 à 500 ft
< 800m
< 200 ft
Symboles :   Orages  Brouillard  Fortes neiges  Fortes précipitations  Vent > 20 kt
SIGMETs :   Divers  Orages  Givrage  Turbulence  Onde Orograph.  Cendres Volcan.







- Altitude de l'aérodrome : 1273 ft
- Code IATA : LJU


LJLJ - Ljubljana

DERNIER METAR :
  • 210330Z VRB01KT CAVOK M04/M05 Q1034 NOSIG

METARs EXPIRÉS :
  • 210300Z VRB01KT CAVOK M04/M05 Q1034 NOSIG
  • 210230Z VRB01KT CAVOK M04/M05 Q1034 NOSIG
  • 210200Z 28004KT CAVOK M03/M04 Q1034 NOSIG
  • 210130Z 30004KT CAVOK M03/M04 Q1034 NOSIG
  • 210100Z 29003KT CAVOK M03/M04 Q1034 NOSIG

TAF TAF LJLJ
Valide du 21 à 03h jusqu'au 22 à 03h UTC


210200Z 2103/2203 30004KT CAVOK
BECMG 2108/2110 12005KT
BECMG 2120/2123 30004KT
Pas de NOTAMs connus pour ce terrain.



MET'MAP, la Météo Aéronautique d'un coup d'oeil ! - Copyright ORBIFLY Décembre 2007 - Disclaimer

ORBIFLY MET'MAP TEAM :

Programmation & Développement : Alexandra Zaïnal
Conception & Développement : Baudouin d'Aumeries
Co-Programmation & Développement : Marc-Olivier Méhu
Soutien technique & logistique : Manuel Goepfert

Contact : metmap@orbifly.com




SOURCES & CREDITS :

   NOAA